Location: Aalen
(48.8330°N, 10.1000°E)
Time: 20:28:00
(UTC+02:00)

CAS-6 - Pass Details

Date: 30 March 2023
Orbit: 610 x 632 km, 97.9° (Epoch: 04 June)

Event Time Altitude Azimuth Distance (km) Brightness Sun altitude
Exits shadow 00:20:26 17° 317° (NW) 1,597 ? -35.8°
Drops below altitude 10° 00:21:39 10° 327° (NNW) 2,002 ? -35.9°
Sets 00:24:04 0° 338° (NNW) 2,918 ? -36.0°
